Location: ??????
(38.1303°N, 24.0039°E)
Time: 22:15:47
(UTC+00:00)

Spot 4 Rocket - Pass Details

Date: 20 June 2021
Orbit: 776 x 781 km, 98.7° (Epoch: 28 July)

Event Time Altitude Azimuth Distance (km) Brightness Sun altitude
Rises 01:53:17 0° 14° (NNE) 3,263 8.3 -11.5°
Reaches altitude 10° 01:55:37 10° 16° (NNE) 2,332 7.5 -11.2°
Maximum altitude 02:00:46 79° 103° (ESE) 794 4.2 -10.4°
Drops below altitude 10° 02:05:53 10° 190° (S) 2,318 6.0 -9.6°
Enters shadow 02:07:05 - 191° (SSW) 2,800 6.4 -9.5°
